METEOSAT 6 AKM, 23118

Orbit data source: Space-Track

METEOSAT 6 AKM, 23118 is space debris in GEO originally from a launch on Sat, 20 Nov 1993 UTC launched from the French Guiana (FRGUI). Debris objects in space refer to the collection of defunct objects orbiting the Earth. Examples of debris include non-operational satellites, rocket bodies, and fragments generated from explosions, collisions, or faulty payload assembly.

Loading next visibility...
METEOSAT 6 AKM details
Identifier
23118, 1993-073E
Orbit
GEO
Last TLE update19 hours ago
Origin
Flag of ESAESA (ESA)
ManufacturerSEP
MissionSpacecraft
Bus & MotorMAGE, Unknown motor
Mass364 kg wet, ~71 kg dry
Launch date (UTC)
1993-11-20 (31 years ago)
Launch vehicleUnknown
Launch site
French Guiana (FRGUI)
Object type
Payload
Rocket body
Debris
Shape & HBRCyl + Cone, 1.12 m
Radar Cross Section0.910 m², Medium (>0.1 m² and < 1m²)

Expand to show TLE details & history

TLE from 19 hours ago
0 METEOSAT 6 AKM
1 23118U 93073E   24336.63655626  .00000015  00000-0  00000-0 0  9990
2 23118  14.4627 351.3271 0065187  97.6819  94.3544  0.99978965 41589
Epoch: 2024-12-01T15:16Z
Definitive object data (Epoch: 2024-12-01T15:16:38.46Z)
Latitude-3.1773°
Longitude-116.43032°
Altitude35,892.63 km
Speed3.07 km/s
True Right ascension12h 14m 48s
True Declination-3° 10' 27"
Sunlit
Object was in daylight at TLE epoch
Visualization TLE readout
Latitude12.93927°
Longitude168.36616°
Altitude35,605.884 km
Speed3.091 km/s
Apparent Right ascension07h 07m 47s
Apparent Declination8° 22' 38"
Sunlit
Object is in daylight
Visualization observer readout
Local Sidereal Time08:00:03
Azimuth203.824° SW
Elevation56.37°
Doppler factor1
Orbital elements
Apogee altitude36,145.256 km
Perigee altitude35,594.452 km
Semi-major axis42,247.991 km
Eccentricity0.0065187
Inclination14.4627°
RAAN351.3271°
Arg. of periapsis97.6819°
True anomaly95.09875°
Mean anomaly94.3544°
Eccentric anomaly94.72662°
Mean motion0.24994 °/min
BSTARUnknown
Orbital period1440.35 mins
Loading historical data...
23118 neighbors
Authenticating...
Loading maneuver chart data...
Loading historical data...
Loading historical data...
Loading historical data...
Loading historical data...
Loading historical data...
Loading historical data...
Loading historical data...

METEOSAT 6 AKM Visibility forecast

Observer location: undefined°, undefined

Span
Click to sort rows by Start time (UTC) header in descending order
Start Az.
Max El. time (UTC)
Max El. Az.
Max El.
End time (UTC)
End Az.
1440 mins2024-12-02 10:13:32.102Z203.812° SW2024-12-03 08:47:32.102Z208.483° SW40.061°2024-12-03 10:13:32.102Z205.828° SW
|